User: anonymous   Login
Location: Fort Wayne
(41.1310°N, 85.1290°W)
Time: 20:13:33
(UTC-04:00)
Language:

Cosmos 1000 Rocket - Orbit

View from above orbital plane
View from above orbital plane
View from above satellite
View from above satellite

Ground track
Ground track

The orbit data is extracted from the following two-line orbital elements,

1 10777U 78034B   17268.62309758 +.00000014 +00000-0 -14047-5 0  9995
2 10777 082.9442 155.8877 0024840 277.6839 143.7380 13.77396936984218
Epoch (UTC): 25 September 2017 14:57:15
Eccentricity: 0.0024840
inclination: 82.9442°
perigee height: 955 km
apogee height: 991 km
right ascension of ascending node: 155.8877°
argument of perigee: 277.6839°
revolutions per day: 13.77396936
mean anomaly at epoch: 143.7380°
orbit number at epoch: 98421

The dashed part of the orbit path shows where the satellite is in the earth's shadow,  

DLR